Flag for U.S.A. Weather past 2 weeks in Atlanta, Georgia, U.S.A.

Now
71 °F

Thundershowers. Overcast.


Feels Like: 70 °F
Forecast: 67 / 78 °F
Wind: 5 mph from Southwest

Location: Fulton County Airport-Brown Field

Current Time: May 28, 2015 at 4:26:48 PM

Latest Report: May 28, 2015 at 3:53 PM


Visibility: 5 mi

Pressure: 30.16 "Hg

Humidity: 84%

Dew point: 66 °F

Location of AtlantaLocation

Historic Weather in Atlanta — Graph

°F

Atlanta temperature yesterday

Maximum temperature yesterday: 83 °F (at 4:53 PM)
Minimum temperature yesterday: 65 °F (at 12:53 AM)
Average temperature yesterday: 73 °F

Past Weeks' High & Low Weather Summary

 TemperatureHumidityPressure
High87 °F (May 20, 4:53 PM)97% (May 26, 11:53 PM)30.37 "Hg (May 26, 11:53 PM)
Low51 °F (May 22, 5:53 AM)26% (May 13, 3:53 PM)29.88 "Hg (May 20, 7:53 PM)
Average72 °F69%30.16 "Hg
* Reported May 13 3:53 PM — May 28 3:00 PM, Atlanta, Weather by CustomWeather, © 2015

Note: Actual official high and low records may vary slightly from our data, if they occured in-between our weather recording intervals... More about our weather records

Advertising

Atlanta weather history for previous 24 hours

 ConditionsComfort  
Time TempWeatherWind HumidityBarometerVisibility
3:00 PM
Thu, May 28
71 °FThundershowers. Mostly cloudy.7 mph90%30.18 "Hg7 mi
1:53 PM80 °FThundershowers. Mostly cloudy.8 mph62%30.17 "Hg10 mi
12:53 PM79 °FPartly sunny.3 mph67%30.18 "Hg10 mi
11:53 AM78 °FBroken clouds.6 mph69%30.20 "Hg10 mi
10:53 AM74 °FScattered clouds.6 mph76%30.20 "Hg10 mi
9:53 AM71 °FPartly sunny.3 mph84%30.21 "Hg10 mi
8:53 AM69 °FSunny.No wind87%30.20 "Hg10 mi
7:53 AM67 °FSunny.No wind93%30.19 "Hg10 mi
6:53 AM66 °FClear.No wind93%30.17 "Hg10 mi
5:53 AM66 °FClear.No wind93%30.15 "Hg10 mi
4:53 AM67 °FClear.No wind93%30.13 "Hg10 mi
3:53 AM67 °FPassing clouds.7 mph90%30.12 "Hg10 mi
2:53 AM67 °FLight rain. Passing clouds.7 mph90%30.16 "Hg10 mi
1:53 AM66 °FThunderstorms. Fog.7 mph93%30.20 "Hg5 mi
1:00 AM67 °FThundershowers. Mostly cloudy.8 mph90%30.25 "Hg9 mi
11:53 PM
Wed, May 27
72 °FMostly cloudy.20 mph73%30.22 "Hg10 mi
10:53 PM72 °FOvercast.No wind87%30.20 "Hg10 mi
9:53 PM73 °FClear.No wind84%30.18 "Hg10 mi
8:53 PM78 °FSunny.No wind64%30.15 "Hg10 mi
7:53 PM80 °FSunny.5 mph60%30.14 "Hg10 mi
6:53 PM82 °FSunny.7 mph56%30.12 "Hg10 mi
5:53 PM83 °FPassing clouds.6 mph53%30.13 "Hg10 mi
4:53 PM83 °FSunny.3 mph55%30.15 "Hg10 mi
Weather by CustomWeather, © 2015

See weather overviewHow to use our weather pages